When you browse on this site, cookies collect data to enhance your experience and personalize the content and advertising you see.
Visit our Privacy Policy to learn more. By continuing to use the site, you agree to this use of cookies and data.
  • In United Kingdom
  • List of Countries
  • For 7 days
  • Water Temperature
  • Satellite Maps
  • Weather Map
  • Weather Widgets
  • user-avatar
    Login

    Hourly Weather Cairo

    Today, 21 May, Tuesday

    Time Temperature Precipitation Wind Pressure Humidity
    00:00 +27°C° 0 mm 5 mps 757 mmHg 39%
    01:00 +27°C° 0 mm 5 mps 757 mmHg 41%
    02:00 +26°C° 0 mm 5 mps 757 mmHg 43%
    03:00 +26°C° 0 mm 4 mps 757 mmHg 43%
    04:00 +26°C° 0 mm 4 mps 757 mmHg 42%
    05:00 +26°C° 0 mm 4 mps 757 mmHg 42%
    06:00 +28°C° 0 mm 4 mps 757 mmHg 35%
    07:00 +30°C° 0 mm 5 mps 757 mmHg 28%
    08:00 +33°C° 0 mm 7 mps 757 mmHg 23%
    09:00 +35°C° 0 mm 7 mps 757 mmHg 19%
    10:00 +38°C° 0 mm 7 mps 757 mmHg 16%
    11:00 +40°C° 0 mm 8 mps 757 mmHg 12%
    12:00 +43°C° 0 mm 8 mps 757 mmHg 11%
    13:00 +44°C° 0 mm 8 mps 756 mmHg 10%
    14:00 +45°C° 0 mm 7 mps 756 mmHg 8%
    15:00 +44°C° 0 mm 8 mps 756 mmHg 9%
    16:00 +44°C° 0 mm 8 mps 755 mmHg 10%
    17:00 +43°C° 0 mm 8 mps 755 mmHg 10%
    18:00 +40°C° 0 mm 8 mps 756 mmHg 14%
    19:00 +36°C° 0 mm 7 mps 756 mmHg 18%
    20:00 +34°C° 0 mm 7 mps 756 mmHg 22%
    21:00 +33°C° 0 mm 6 mps 756 mmHg 24%
    22:00 +32°C° 0 mm 6 mps 757 mmHg 25%
    23:00 +32°C° 0 mm 5 mps 757 mmHg 27%

    Tomorrow, 22 May, Wednesday

    Time Temperature Precipitation Wind Pressure Humidity
    00:00 +30°C° 0 mm 5 mps 757 mmHg 27%
    01:00 +30°C° 0 mm 5 mps 757 mmHg 26%
    02:00 +30°C° 0 mm 4 mps 757 mmHg 26%
    03:00 +29°C° 0 mm 4 mps 757 mmHg 26%
    04:00 +29°C° 0 mm 4 mps 756 mmHg 27%
    05:00 +29°C° 0 mm 4 mps 756 mmHg 27%
    06:00 +32°C° 0 mm 4 mps 756 mmHg 22%
    07:00 +34°C° 0 mm 5 mps 757 mmHg 18%
    08:00 +36°C° 0 mm 5 mps 757 mmHg 14%
    09:00 +39°C° 0 mm 6 mps 756 mmHg 12%
    10:00 +42°C° 0 mm 6 mps 756 mmHg 10%
    11:00 +45°C° 0 mm 7 mps 756 mmHg 8%
    12:00 +46°C° 0 mm 6 mps 756 mmHg 7%
    13:00 +47°C° 0 mm 6 mps 755 mmHg 7%
    14:00 +48°C° 0 mm 6 mps 755 mmHg 6%
    15:00 +48°C° 0 mm 6 mps 754 mmHg 6%
    16:00 +48°C° 0 mm 6 mps 754 mmHg 6%
    17:00 +47°C° 0 mm 6 mps 754 mmHg 6%
    18:00 +45°C° 0 mm 6 mps 754 mmHg 7%
    19:00 +43°C° 0 mm 7 mps 754 mmHg 9%
    20:00 +40°C° 0 mm 8 mps 754 mmHg 11%
    21:00 +39°C° 0 mm 7 mps 755 mmHg 12%
    22:00 +38°C° 0 mm 7 mps 755 mmHg 13%
    23:00 +36°C° 0 mm 7 mps 755 mmHg 14%

    Day after tomorrow, 23 May, Thursday

    Time Temperature Precipitation Wind Pressure Humidity
    00:00 +36°C° 0 mm 6 mps 755 mmHg 14%
    01:00 +36°C° 0 mm 5 mps 755 mmHg 13%
    02:00 +35°C° 0 mm 5 mps 754 mmHg 13%
    03:00 +35°C° 0 mm 5 mps 754 mmHg 13%
    04:00 +35°C° 0 mm 4 mps 754 mmHg 13%
    05:00 +34°C° 0 mm 4 mps 754 mmHg 13%
    06:00 +36°C° 0 mm 4 mps 754 mmHg 11%
    07:00 +39°C° 0 mm 5 mps 754 mmHg 9%
    08:00 +42°C° 0 mm 5 mps 754 mmHg 8%
    09:00 +43°C° 0 mm 4 mps 754 mmHg 7%
    10:00 +45°C° 0 mm 4 mps 754 mmHg 6%
    11:00 +47°C° 0 mm 3 mps 753 mmHg 5%
    12:00 +47°C° 0 mm 3 mps 753 mmHg 5%
    13:00 +48°C° 0 mm 3 mps 752 mmHg 5%
    14:00 +50°C° 0 mm 3 mps 752 mmHg 5%
    15:00 +50°C° 0 mm 3 mps 751 mmHg 4%
    16:00 +48°C° 0 mm 3 mps 751 mmHg 4%
    17:00 +48°C° 0 mm 3 mps 750 mmHg 4%
    18:00 +47°C° 0 mm 3 mps 750 mmHg 5%
    19:00 +45°C° 0 mm 2 mps 751 mmHg 5%
    20:00 +42°C° 0 mm 2 mps 751 mmHg 6%
    21:00 +41°C° 0 mm 2 mps 751 mmHg 6%
    22:00 +41°C° 0 mm 2 mps 752 mmHg 7%
    23:00 +40°C° 0 mm 3 mps 752 mmHg 7%

    24 May, Friday

    Time Temperature Precipitation Wind Pressure Humidity
    00:00 +39°C° 0 mm 3 mps 751 mmHg 8%
    01:00 +39°C° 0 mm 3 mps 751 mmHg 8%
    02:00 +38°C° 0 mm 4 mps 751 mmHg 9%
    03:00 +38°C° 0 mm 4 mps 750 mmHg 9%
    04:00 +37°C° 0 mm 3 mps 750 mmHg 10%
    05:00 +37°C° 0 mm 3 mps 750 mmHg 10%
    06:00 +38°C° 0 mm 4 mps 750 mmHg 9%
    07:00 +41°C° 0 mm 5 mps 751 mmHg 8%
    08:00 +42°C° 0 mm 5 mps 751 mmHg 7%
    09:00 +45°C° 0 mm 6 mps 751 mmHg 6%
    10:00 +47°C° 0 mm 7 mps 751 mmHg 5%
    11:00 +51°C° 0 mm 7 mps 751 mmHg 4%
    12:00 +51°C° 0 mm 7 mps 751 mmHg 4%
    13:00 +51°C° 0 mm 7 mps 750 mmHg 3%
    14:00 +52°C° 0 mm 6 mps 750 mmHg 3%
    15:00 +51°C° 0 mm 6 mps 750 mmHg 4%
    16:00 +49°C° 0 mm 6 mps 750 mmHg 6%
    17:00 +48°C° 0 mm 6 mps 750 mmHg 7%
    18:00 +44°C° 0 mm 7 mps 751 mmHg 16%
    19:00 +39°C° 0 mm 7 mps 751 mmHg 25%
    20:00 +34°C° 0 mm 8 mps 752 mmHg 34%
    21:00 +32°C° 0 mm 7 mps 753 mmHg 40%
    22:00 +29°C° 0 mm 7 mps 753 mmHg 45%
    23:00 +28°C° 0 mm 6 mps 754 mmHg 50%

    25 May, Saturday

    Time Temperature Precipitation Wind Pressure Humidity
    00:00 +27°C° 0 mm 5 mps 754 mmHg 53%
    01:00 +27°C° 0 mm 5 mps 754 mmHg 56%
    02:00 +26°C° 0 mm 5 mps 754 mmHg 59%
    03:00 +26°C° 0 mm 5 mps 754 mmHg 60%
    04:00 +25°C° 0 mm 5 mps 755 mmHg 61%
    05:00 +25°C° 0 mm 5 mps 755 mmHg 62%
    06:00 +26°C° 0 mm 5 mps 755 mmHg 56%
    07:00 +27°C° 0 mm 4 mps 756 mmHg 51%
    08:00 +28°C° 0 mm 4 mps 756 mmHg 45%
    09:00 +30°C° 0 mm 4 mps 756 mmHg 40%
    10:00 +33°C° 0 mm 4 mps 756 mmHg 34%
    11:00 +34°C° 0 mm 4 mps 756 mmHg 28%
    12:00 +36°C° 0 mm 4 mps 755 mmHg 25%
    13:00 +38°C° 0 mm 4 mps 755 mmHg 21%
    14:00 +40°C° 0 mm 4 mps 754 mmHg 18%
    15:00 +40°C° 0 mm 5 mps 754 mmHg 18%
    16:00 +40°C° 0 mm 6 mps 754 mmHg 18%
    17:00 +40°C° 0 mm 7 mps 754 mmHg 18%
    18:00 +36°C° 0 mm 7 mps 755 mmHg 23%
    19:00 +34°C° 0 mm 7 mps 755 mmHg 28%
    20:00 +31°C° 0 mm 8 mps 756 mmHg 33%
    21:00 +29°C° 0 mm 7 mps 756 mmHg 37%
    22:00 +28°C° 0 mm 6 mps 756 mmHg 40%
    23:00 +26°C° 0 mm 6 mps 756 mmHg 44%

    26 May, Sunday

    Time Temperature Precipitation Wind Pressure Humidity
    00:00 +24°C° 0 mm 6 mps 756 mmHg 49%
    01:00 +24°C° 0 mm 6 mps 756 mmHg 54%
    02:00 +23°C° 0 mm 6 mps 756 mmHg 58%
    03:00 +22°C° 0 mm 5 mps 756 mmHg 61%
    04:00 +22°C° 0 mm 5 mps 756 mmHg 64%
    05:00 +21°C° 0 mm 5 mps 756 mmHg 67%
    06:00 +22°C° 0 mm 5 mps 756 mmHg 60%
    07:00 +23°C° 0 mm 5 mps 756 mmHg 54%
    08:00 +26°C° 0 mm 5 mps 756 mmHg 47%
    09:00 +28°C° 0 mm 5 mps 756 mmHg 39%
    10:00 +30°C° 0 mm 5 mps 756 mmHg 30%
    11:00 +33°C° 0 mm 5 mps 755 mmHg 22%
    12:00 +35°C° 0 mm 4 mps 755 mmHg 19%
    13:00 +37°C° 0 mm 4 mps 754 mmHg 16%
    14:00 +38°C° 0 mm 4 mps 754 mmHg 13%
    15:00 +39°C° 0 mm 5 mps 754 mmHg 13%
    16:00 +39°C° 0 mm 6 mps 753 mmHg 13%
    17:00 +39°C° 0 mm 6 mps 753 mmHg 14%
    18:00 +36°C° 0 mm 7 mps 754 mmHg 18%
    19:00 +33°C° 0 mm 7 mps 754 mmHg 23%
    20:00 +29°C° 0 mm 8 mps 755 mmHg 28%
    21:00 +28°C° 0 mm 7 mps 755 mmHg 32%
    22:00 +27°C° 0 mm 6 mps 755 mmHg 37%
    23:00 +26°C° 0 mm 5 mps 755 mmHg 41%
    Show more